< < Back
Terminal Aerodrome Forecast


Current Version              Previous Versions:   1  2  3  4  5  6  7  8  9  

Terminal Aerodrome Forecast

316
FTUS42 KFFC 252339
TAFPDK
TAF
KPDK 252339Z 2600/2624 30005KT P6SM BKN120 BKN200
     FM260200 32004KT P6SM OVC080
     FM260400 32008KT P6SM -RA OVC030
     FM260700 31008KT 6SM -RA BR OVC020
     FM261200 30008KT 6SM BR OVC025
     FM261500 30008KT P6SM SCT035
     FM262100 26007KT P6SM SCT250=



Latest METAR

579
SAUS70 KWBC 261600 RRP
MTRPDK
METAR KPDK 261553Z 30010G25KT 10SM CLR 10/M02 A3010 RMK AO2 SLP195
T01001022


USA.gov is the U.S. government's official web portal to all federal, state and local government web resources and services.